Flag for Mexico Weather past 2 weeks in Querétaro, Querétaro, Mexico

Now
57 °F

Fog.


Feels Like: 57 °F
Forecast: 62 / 79 °F
Wind: 5 mph from Northeast

Location: Queretaro - Qro.

Current Time: Oct 1, 2014 at 8:01:56 AM

Latest Report: Oct 1, 2014 at 6:48 AM


Visibility: 3 mi

Pressure: 30.16 "Hg

Humidity: 94%

Dew point: 55 °F

Location of QuerétaroLocation

Historic Weather in Querétaro — Graph

°F

Querétaro temperature yesterday

Maximum temperature yesterday: 77 °F (at 3:45 PM)
Minimum temperature yesterday: 57 °F (at 12:45 AM)
Average temperature yesterday: 64 °F

Past Weeks' High & Low Weather Summary

 TemperatureHumidityPressure
High82 °F (Sep 18, 2:45 PM)100% (Sep 18, 4:45 AM)30.38 "Hg (Sep 18, 4:45 AM)
Low52 °F (Sep 19, 6:45 AM)28% (Sep 19, 2:45 PM)30.04 "Hg (Sep 30, 5:45 PM)
Average65 °F74%30.26 "Hg
* Reported Sep 16 6:45 AM — Oct 1 6:48 AM, Querétaro, Weather by CustomWeather, © 2014

Note: Actual official high and low records may vary slightly from our data, if they occured in-between our weather recording intervals... More about our weather records

Advertising

Querétaro weather history for previous 24 hours

 ConditionsComfort  
Time TempWeatherWind HumidityBarometerVisibility
6:48 AM
Oct 1
57 °FFog.5 mph94%30.16 "Hg3 mi
5:53 AM57 °FFog.6 mph94%30.18 "Hg3 mi
4:45 AM57 °FFog.5 mph94%30.18 "Hg3 mi
3:48 AM57 °FFog.5 mph94%30.18 "Hg3 mi
2:45 AM57 °FRain. Mostly cloudy.No wind94%30.20 "Hg3 mi
1:45 AM57 °FLight rain. Fog.No wind94%30.20 "Hg3 mi
12:45 AM57 °FMostly cloudy.5 mph94%30.21 "Hg4 mi
11:52 PM
Sep 30
57 °FOvercast.N/A94%30.21 "Hg4 mi
11:50 PM57 °FOvercast.N/A94%30.21 "Hg3 mi
10:50 PM57 °FPartly cloudy.5 mph94%30.20 "Hg4 mi
9:50 PM59 °FThunderstorms. Mostly cloudy.6 mph94%30.19 "Hg5 mi
9:00 PM59 °FThunderstorms. Overcast.12 mph100%30.18 "Hg3 mi
7:45 PM68 °FRain. Partly sunny.9 mph73%30.14 "Hg6 mi
5:45 PM77 °FPartly sunny.12 mph47%30.04 "Hg7 mi
4:45 PM77 °FPartly sunny.6 mph44%30.08 "Hg7 mi
3:45 PM77 °FPartly sunny.6 mph47%30.08 "Hg7 mi
2:45 PM75 °FPartly sunny.9 mph50%30.12 "Hg7 mi
1:50 PM73 °FPartly sunny.5 mph53%30.16 "Hg8 mi
12:45 PM72 °FMostly cloudy.9 mph57%30.20 "Hg8 mi
11:50 AM70 °FMostly cloudy.10 mph64%30.23 "Hg8 mi
9:45 AM64 °FBroken clouds.9 mph78%30.24 "Hg7 mi
8:45 AM61 °FMostly cloudy.5 mph88%30.24 "Hg6 mi
Weather by CustomWeather, © 2014

See weather overviewHow to use our weather pages